Location: Cactus School
(34.5700°N, 118.0931°W)
Time: 12:33:40
(UTC-07:00)

Transit 4A - Pass Details

Date: 21 April 2024
Orbit: 871 x 971 km, 66.8° (Epoch: 21 May)

Event Time Altitude Azimuth Distance (km) Brightness Sun altitude
Rises 20:36:25 0° 352° (N) 3,464 11.4 -13.7°
Reaches altitude 10° 20:40:40 10° 21° (NNE) 2,526 10.2 -14.4°
Maximum altitude 20:43:01 12° 46° (NE) 2,359 9.8 -14.9°
Drops below altitude 10° 20:45:22 10° 70° (ENE) 2,534 9.8 -15.3°
Enters shadow 20:45:26 10° 70° (ENE) 2,543 9.8 -15.3°
Sets 20:49:37 0° 99° (E) 3,486 - -16.1°
